FW8483 Weather Reports


time (UTC)temp
C
wind
direction
speed
KPH
gust
KPH
rain 1hr
cm
rain 24hr
cm
rain mn
cm
humidity
%
barometer
mb
20260906191513 32 171 9.7 14.5 0.00 0.00 0.00 63 1011.2
20260906191007 33 157 3.2 8.0 0.00 0.00 0.00 67 1011.3
20260906190510 33 267 3.2 8.0 0.00 0.00 0.00 65 1011.3
20260906190023 32 302 1.6 9.7 0.00 0.05 0.00 65 1011.4
20260906185511 32 216 3.2 9.7 0.00 0.38 0.00 64 1011.5
20260906185013 32 192 4.8 9.7 0.00 0.66 0.00 66 1011.7
20260906184533 32 236 3.2 8.0 0.00 0.69 0.00 65 1011.7
20260906184014 32 187 4.8 8.0 0.00 0.69 0.00 66 1011.7
20260906183517 32 72 1.6 9.7 0.00 0.69 0.00 65 1011.7
20260906183034 32 229 0.0 11.3 0.00 0.69 0.00 68 1011.7
20260906182505 32 264 4.8 11.3 0.00 0.69 0.00 66 1011.9
20260906182015 32 252 4.8 11.3 0.00 0.69 0.00 65 1011.9
20260906181515 32 12 0.0 11.3 0.00 0.69 0.00 67 1012.0
20260906181007 32 207 4.8 11.3 0.00 0.69 0.00 66 1012.0
20260906180506 32 315 0.0 4.8 0.00 0.69 0.00 67 1012.2
20260906180023 32 110 0.0 3.2 0.00 0.69 0.00 67 1012.2
20260906175512 32 234 1.6 3.2 0.00 0.69 0.00 66 1012.2
20260906175011 32 276 0.0 6.4 0.00 0.69 0.00 69 1012.3
20260906174528 32 304 1.6 9.7 0.00 0.69 0.00 69 1012.3
20260906174012 32 180 3.2 12.9 0.00 0.69 0.00 67 1012.4
20260906173515 32 147 8.0 12.9 0.00 0.69 0.00 70 1012.5
20260906173030 32 90 1.6 6.4 0.00 0.69 0.00 67 1012.6
20260906172516 32 65 0.0 4.8 0.00 0.69 0.00 67 1012.7
20260906172017 31 298 1.6 8.0 0.00 0.69 0.00 67 1012.7
20260906171510 31 271 3.2 9.7 0.00 0.69 0.00 68 1012.8
20260906171003 31 198 0.0 11.3 0.00 0.69 0.00 72 1012.8
20260906170507 32 203 6.4 11.3 0.00 0.69 0.00 69 1012.8
20260906170018 31 221 0.0 11.3 0.00 0.69 0.00 68 1012.8
20260906165512 31 165 1.6 11.3 0.00 0.69 0.00 68 1012.9
20260906165015 31 190 4.8 8.0 0.00 0.69 0.00 68 1013.0
20260906164533 31 213 0.0 6.4 0.00 0.69 0.00 70 1012.9
20260906164012 31 195 1.6 8.0 0.00 0.69 0.00 70 1012.9
20260906163514 31 302 3.2 9.7 0.00 0.69 0.00 70 1013.1
20260906163029 31 260 4.8 9.7 0.00 0.69 0.00 72 1013.2
20260906162518 31 178 0.0 12.9 0.00 0.69 0.00 74 1013.2
20260906162016 31 278 1.6 12.9 0.00 0.69 0.00 72 1013.3
20260906161532 31 288 1.6 6.4 0.00 0.69 0.00 76 1013.2
20260906161014 31 214 0.0 8.0 0.00 0.69 0.00 72 1013.2
20260906160503 31 155 1.6 8.0 0.00 0.69 0.00 73 1013.2
20260906160017 31 220 3.2 8.0 0.00 0.69 0.00 75 1013.3
20260906155510 31 164 4.8 8.0 0.00 0.69 0.00 75 1013.2
20260906155007 31 291 3.2 6.4 0.00 0.69 0.00 73 1013.3
20260906154519 31 350 3.2 6.4 0.00 0.69 0.00 73 1013.3
20260906154011 31 298 1.6 6.4 0.00 0.69 0.00 75 1013.4
20260906153511 30 323 0.0 6.4 0.00 0.69 0.00 78 1013.4
20260906153028 30 185 1.6 6.4 0.00 0.69 0.00 74 1013.5
20260906152514 30 321 1.6 6.4 0.00 0.69 0.00 76 1013.4
20260906152015 30 234 1.6 6.4 0.00 0.69 0.00 78 1013.5
20260906151530 30 240 3.2 6.4 0.00 0.69 0.00 77 1013.4
20260906151018 30 207 1.6 6.4 0.00 0.69 0.00 81 1013.4
20260906150518 30 192 3.2 6.4 0.00 0.69 0.00 79 1013.3
20260906150033 30 233 1.6 6.4 0.00 0.69 0.00 82 1013.4
20260906145507 29 317 1.6 6.4 0.00 0.69 0.00 79 1013.4
20260906145007 29 222 0.0 6.4 0.00 0.69 0.00 80 1013.4
20260906144520 29 256 1.6 9.7 0.00 0.69 0.00 82 1013.5
20260906144011 29 236 3.2 9.7 0.00 0.69 0.00 83 1013.4
20260906143512 28 294 3.2 6.4 0.00 0.69 0.00 83 1013.4
20260906143025 28 360 1.6 6.4 0.00 0.69 0.00 84 1013.4
20260906142512 28 271 0.0 6.4 0.00 0.69 0.00 84 1013.5
20260906142016 28 317 1.6 6.4 0.00 0.69 0.00 85 1013.5
20260906141529 28 275 3.2 6.4 0.00 0.69 0.00 86 1013.5
20260906141014 28 290 1.6 9.7 0.00 0.69 0.00 88 1013.5
20260906140516 27 320 0.0 9.7 0.00 0.69 0.00 88 1013.5
20260906140032 27 292 4.8 6.4 0.00 0.69 0.00 88 1013.5
20260906135513 27 287 3.2 9.7 0.00 0.69 0.00 88 1013.5
20260906135007 27 291 4.8 9.7 0.00 0.69 0.00 89 1013.5
20260906134516 27 288 1.6 6.4 0.00 0.69 0.00 90 1013.5
20260906134012 27 313 3.2 6.4 0.00 0.69 0.00 90 1013.4
20260906133508 26 244 1.6 6.4 0.00 0.69 0.00 91 1013.4
20260906133023 26 326 4.8 6.4 0.00 0.69 0.00 91 1013.5
20260906132512 26 317 3.2 4.8 0.00 0.69 0.00 92 1013.6
20260906132012 26 244 3.2 4.8 0.00 0.69 0.00 92 1013.6
20260906131530 26 275 3.2 4.8 0.00 0.69 0.00 93 1013.6
20260906131015 26 262 3.2 4.8 0.00 0.69 0.00 94 1013.6
20260906130516 26 286 0.0 4.8 0.00 0.69 0.00 96 1013.5
20260906130034 25 338 1.6 6.4 0.00 0.69 0.00 96 1013.5
20260906125516 25 268 1.6 6.4 0.00 0.69 0.00 97 1013.5
20260906125015 25 309 0.0 0.0 0.00 0.69 0.00 97 1013.4
20260906124538 25 237 0.0 0.0 0.00 0.69 0.00 98 1013.4
20260906124007 25 237 0.0 0.0 0.00 0.69 0.00 98 1013.3
20260906123510 25 237 0.0 0.0 0.00 0.69 0.00 98 1013.3
20260906123031 24 237 0.0 0.0 0.00 0.69 0.00 98 1013.3
20260906122511 24 237 0.0 0.0 0.00 0.69 0.00 98 1013.2
20260906122012 23 76 0.0 0.0 0.00 0.69 0.00 98 1013.2
20260906121532 23 76 0.0 0.0 0.00 0.69 0.00 98 1013.1
20260906121014 23 76 0.0 0.0 0.00 0.69 0.00 98 1013.1
20260906120515 23 76 0.0 0.0 0.00 0.69 0.00 98 1013.0
20260906120031 23 76 0.0 0.0 0.00 0.69 0.00 98 1013.0
20260906115514 23 76 0.0 0.0 0.00 0.69 0.00 98 1013.0
20260906115002 23 76 0.0 0.0 0.00 0.69 0.00 97 1013.0
20260906114503 23 76 0.0 0.0 0.00 0.69 0.00 97 1013.0
20260906114003 23 76 0.0 0.0 0.00 0.69 0.00 97 1012.9
20260906113503 23 76 0.0 0.0 0.00 0.69 0.00 98 1012.9
20260906113004 22 76 0.0 0.0 0.00 0.69 0.00 98 1012.9
20260906112503 22 76 0.0 0.0 0.00 0.69 0.00 97 1012.8
20260906112003 22 76 0.0 0.0 0.00 0.69 0.00 97 1012.7
20260906111507 22 76 0.0 0.0 0.00 0.69 0.00 97 1012.7
20260906111003 22 76 0.0 0.0 0.00 0.69 0.00 97 1012.8
20260906110503 22 76 0.0 0.0 0.00 0.69 0.00 97 1012.7
20260906110005 22 76 0.0 0.0 0.00 0.69 0.00 97 1012.7
20260906105504 22 76 0.0 0.0 0.00 0.69 0.00 97 1012.7
20260906105005 22 76 0.0 0.0 0.00 0.69 0.00 97 1012.6
20260906104506 22 76 0.0 0.0 0.00 0.69 0.00 97 1012.7
20260906104002 22 76 0.0 0.0 0.00 0.69 0.00 97 1012.7
20260906103502 23 76 0.0 0.0 0.00 0.69 0.00 97 1012.5
20260906103006 23 76 0.0 0.0 0.00 0.69 0.00 97 1012.4
20260906102504 22 76 0.0 0.0 0.00 0.69 0.00 97 1012.4
20260906102003 22 76 0.0 0.0 0.00 0.69 0.00 97 1012.3
20260906101506 23 76 0.0 0.0 0.00 0.69 0.00 97 1012.3
20260906101003 23 76 0.0 0.0 0.00 0.69 0.00 98 1012.4
20260906100503 22 76 0.0 0.0 0.00 0.69 0.00 97 1012.4
20260906100014 22 76 0.0 0.0 0.00 0.69 0.00 97 1012.3
20260906095502 22 76 0.0 0.0 0.00 0.69 0.00 97 1012.2
20260906095003 22 76 0.0 0.0 0.00 0.69 0.00 97 1012.2
20260906094505 22 76 0.0 0.0 0.00 0.69 0.00 97 1012.1
20260906094003 23 76 0.0 0.0 0.00 0.69 0.00 97 1012.1
20260906093505 23 76 0.0 0.0 0.00 0.69 0.00 97 1012.1
20260906093008 23 76 0.0 0.0 0.00 0.69 0.00 97 1012.0
20260906092502 23 76 0.0 0.0 0.00 0.69 0.00 97 1012.0
20260906092004 23 76 0.0 0.0 0.00 0.69 0.00 97 1012.0
20260906091507 23 76 0.0 0.0 0.00 0.69 0.00 97 1012.0
20260906091003 23 76 0.0 0.0 0.00 0.69 0.00 97 1012.0
20260906090504 23 76 0.0 0.0 0.00 0.69 0.00 97 1011.9
20260906090006 23 76 0.0 0.0 0.00 0.69 0.00 97 1011.8
20260906085505 23 76 0.0 0.0 0.00 0.69 0.00 97 1011.8
20260906085003 23 76 0.0 0.0 0.00 0.69 0.00 97 1011.8
20260906084508 23 76 0.0 0.0 0.00 0.69 0.00 97 1011.8
20260906084005 23 76 0.0 0.0 0.00 0.69 0.00 97 1011.7
20260906083503 23 76 0.0 0.0 0.00 0.69 0.00 97 1011.7
20260906083006 23 76 0.0 0.0 0.00 0.69 0.00 97 1011.7
20260906082502 23 76 0.0 0.0 0.00 0.69 0.00 97 1011.6
20260906082002 23 76 0.0 0.0 0.00 0.69 0.00 97 1011.6
20260906081506 23 76 0.0 0.0 0.00 0.69 0.00 97 1011.6
20260906081003 23 76 0.0 0.0 0.00 0.69 0.00 97 1011.6
20260906080504 23 76 0.0 0.0 0.00 0.69 0.00 97 1011.5
20260906080008 23 76 0.0 0.0 0.00 0.69 0.00 97 1011.5
20260906075503 23 76 0.0 0.0 0.00 0.69 0.00 97 1011.6
20260906075004 23 76 0.0 0.0 0.00 0.69 0.00 97 1011.7
20260906074507 23 76 0.0 0.0 0.00 0.69 0.00 97 1011.6
20260906074003 23 76 0.0 0.0 0.00 0.69 0.00 97 1011.7
20260906073503 23 76 0.0 0.0 0.00 0.69 0.00 97 1011.8
20260906073008 23 76 0.0 0.0 0.00 0.69 0.00 97 1011.8
20260906072504 23 77 0.0 0.0 0.00 0.69 0.00 96 1011.8
20260906072003 23 287 0.0 0.0 0.00 0.69 0.00 96 1011.7
20260906071507 23 287 0.0 0.0 0.00 0.69 0.00 97 1011.6
20260906071002 23 287 0.0 0.0 0.00 0.69 0.00 97 1011.5
20260906070502 23 287 0.0 0.0 0.00 0.69 0.00 97 1011.5
20260906070010 23 287 0.0 0.0 0.00 0.69 0.00 97 1011.6
20260906065503 23 287 0.0 0.0 0.00 0.69 0.00 97 1011.8
20260906065003 23 287 0.0 0.0 0.00 0.69 0.00 97 1011.8
20260906064510 23 287 0.0 0.0 0.00 0.69 0.00 97 1011.8
20260906064004 24 287 0.0 0.0 0.00 0.69 0.00 97 1011.9
20260906063506 24 287 0.0 0.0 0.00 0.69 0.00 97 1011.9
20260906063011 23 287 0.0 0.0 0.00 0.69 0.00 97 1012.0
20260906062502 23 287 0.0 0.0 0.00 0.69 0.00 97 1012.0
20260906062003 23 287 0.0 0.0 0.00 0.69 0.00 97 1012.1
20260906061519 23 287 0.0 0.0 0.00 0.69 0.00 97 1012.0
20260906061004 23 287 0.0 0.0 0.00 0.69 0.00 97 1012.0
20260906060504 23 287 0.0 0.0 0.00 0.69 0.00 96 1012.1
20260906060009 23 287 0.0 0.0 0.00 0.69 0.00 97 1012.2
20260906055506 23 287 0.0 0.0 0.00 0.69 0.00 97 1012.2
20260906055004 24 287 0.0 0.0 0.00 0.69 0.00 97 1012.2
20260906054524 24 287 0.0 0.0 0.00 0.69 0.00 97 1012.2
20260906054003 23 287 0.0 0.0 0.00 0.69 0.00 97 1012.2
20260906053502 23 287 0.0 0.0 0.00 0.69 0.00 96 1012.3
20260906053008 23 287 0.0 0.0 0.00 0.69 0.00 96 1012.3
20260906052504 24 287 0.0 0.0 0.00 0.69 0.00 97 1012.4
20260906052010 24 287 0.0 0.0 0.00 0.69 0.00 97 1012.3
20260906051510 24 287 0.0 0.0 0.00 0.69 0.00 96 1012.1
20260906051007 24 287 0.0 0.0 0.00 0.69 0.00 96 1012.2
20260906050507 24 287 0.0 0.0 0.00 0.69 0.00 97 1012.2
20260906050010 24 287 0.0 0.0 0.00 0.69 0.00 97 1012.2
20260906045502 25 287 0.0 0.0 0.00 0.69 0.69 97 1012.2
20260906045003 25 287 0.0 0.0 0.00 0.71 0.69 97 1012.2
20260906044514 25 287 0.0 0.0 0.00 0.71 0.69 97 1012.2
20260906044003 25 287 0.0 0.0 0.00 0.71 0.69 97 1012.3
20260906043502 24 287 0.0 0.0 0.00 0.71 0.69 97 1012.3
20260906043021 24 287 0.0 0.0 0.00 0.71 0.69 97 1012.3
20260906042504 24 287 0.0 0.0 0.00 0.71 0.69 96 1012.5
20260906042004 24 287 0.0 0.0 0.00 0.71 0.69 96 1012.6
20260906041514 24 287 0.0 0.0 0.00 0.71 0.69 96 1012.5
20260906041007 24 287 0.0 0.0 0.00 0.71 0.69 96 1012.6
20260906040507 24 287 0.0 0.0 0.00 0.71 0.69 96 1012.7
20260906040013 24 287 0.0 0.0 0.00 0.71 0.69 96 1012.7
20260906035503 24 287 0.0 0.0 0.00 0.71 0.69 97 1012.8
20260906035003 24 287 0.0 0.0 0.00 0.71 0.69 96 1012.9
20260906034514 24 287 0.0 0.0 0.00 0.71 0.69 96 1013.0
20260906034002 24 287 0.0 0.0 0.00 0.71 0.69 96 1012.9
20260906033502 24 287 0.0 0.0 0.00 0.71 0.69 96 1012.9
20260906033007 24 287 0.0 0.0 0.00 0.71 0.69 96 1013.0
20260906032503 25 287 0.0 0.0 0.00 0.71 0.69 96 1013.1
20260906032004 25 287 0.0 0.0 0.00 0.71 0.69 96 1013.1
20260906031512 25 287 0.0 0.0 0.00 0.71 0.69 96 1013.1
20260906031004 25 287 0.0 0.0 0.00 0.71 0.69 96 1013.1
20260906030503 25 287 0.0 0.0 0.00 0.71 0.69 96 1013.1
20260906030015 25 287 0.0 0.0 0.00 0.71 0.69 96 1013.1
20260906025506 25 287 0.0 0.0 0.00 0.71 0.69 96 1013.1
20260906025008 25 287 0.0 0.0 0.00 0.71 0.69 96 1013.2
20260906024514 25 287 0.0 0.0 0.00 0.71 0.69 96 1013.2
20260906024007 25 287 0.0 0.0 0.00 0.71 0.69 96 1013.1
20260906023506 25 287 0.0 0.0 0.00 0.71 0.69 96 1013.2
20260906023015 25 287 0.0 0.0 0.00 0.71 0.69 96 1013.2
20260906022503 25 287 0.0 0.0 0.00 0.71 0.69 95 1013.0
20260906022003 25 287 0.0 0.0 0.00 0.71 0.69 96 1012.9
20260906021519 25 287 0.0 0.0 0.00 0.71 0.69 96 1012.8
20260906021004 25 287 0.0 0.0 0.00 0.71 0.69 96 1012.7
20260906020505 25 287 0.0 0.0 0.00 0.71 0.69 96 1012.6
20260906020020 25 287 0.0 0.0 0.00 0.71 0.69 95 1012.5
20260906015507 25 287 0.0 0.0 0.00 0.71 0.69 95 1012.3
20260906015007 25 287 0.0 0.0 0.00 0.71 0.69 95 1012.3
20260906014519 25 287 0.0 0.0 0.00 0.71 0.69 95 1012.3
20260906014008 25 287 0.0 0.0 0.00 0.71 0.69 95 1012.2
20260906013508 25 287 0.0 0.0 0.00 0.71 0.69 95 1012.2
20260906013032 25 287 0.0 0.0 0.00 0.71 0.69 95 1012.1
20260906012506 25 287 0.0 0.0 0.00 0.71 0.69 95 1012.0
20260906012003 25 287 0.0 0.0 0.00 0.71 0.69 94 1011.9
20260906011508 25 287 0.0 0.0 0.00 0.71 0.69 94 1011.8
20260906011002 25 287 0.0 0.0 0.00 0.71 0.69 94 1011.7
20260906010505 26 287 0.0 0.0 0.00 0.71 0.69 94 1011.7
20260906010016 26 287 0.0 0.0 0.00 0.71 0.69 94 1011.6
20260906005507 26 287 0.0 0.0 0.00 0.71 0.69 94 1011.5
20260906005009 26 287 0.0 0.0 0.00 0.71 0.69 94 1011.4
20260906004517 26 287 0.0 0.0 0.00 0.71 0.69 94 1011.4
20260906004006 26 287 0.0 1.6 0.00 0.71 0.69 94 1011.5
20260906003508 26 240 0.0 1.6 0.00 0.71 0.69 94 1011.5
20260906003022 26 232 0.0 1.6 0.00 0.71 0.69 94 1011.5
20260906002506 26 232 0.0 0.0 0.00 0.71 0.69 94 1011.7
20260906002011 26 232 0.0 0.0 0.00 0.71 0.69 93 1011.8
20260906001520 26 232 0.0 0.0 0.00 0.71 0.69 93 1011.8
20260906001003 26 232 0.0 3.2 0.00 0.71 0.69 93 1011.9
20260906000503 26 232 0.0 3.2 0.00 0.71 0.69 92 1011.8
20260906000023 26 232 0.0 0.0 0.00 0.71 0.69 92 1011.8
20260905235505 26 156 0.0 0.0 0.00 0.71 0.69 92 1011.9
20260905235007 26 156 0.0 0.0 0.00 0.71 0.69 92 1011.9
20260905234517 26 156 0.0 0.0 0.00 0.71 0.69 92 1011.9
20260905234008 26 156 0.0 0.0 0.00 0.71 0.69 92 1011.9
20260905233510 27 156 0.0 0.0 0.00 0.71 0.69 91 1011.9
20260905233022 27 156 0.0 0.0 0.00 0.71 0.69 91 1011.8
20260905232509 27 156 0.0 0.0 0.00 0.71 0.69 90 1011.9
20260905232008 27 156 0.0 0.0 0.00 0.71 0.69 91 1011.9
20260905231519 27 156 0.0 0.0 0.00 0.71 0.69 91 1012.0
20260905231009 27 156 0.0 0.0 0.00 0.71 0.69 91 1011.9
20260905230511 27 156 0.0 0.0 0.00 0.71 0.69 89 1011.9
20260905230019 27 156 0.0 0.0 0.00 0.71 0.69 90 1012.0
20260905225503 27 320 0.0 0.0 0.00 0.71 0.69 89 1011.9
20260905225003 27 318 0.0 0.0 0.00 0.71 0.69 89 1011.8
20260905224519 27 338 0.0 0.0 0.00 0.71 0.69 89 1011.8
20260905224005 27 352 0.0 0.0 0.00 0.71 0.69 88 1011.9
20260905223512 27 352 0.0 0.0 0.00 0.71 0.69 88 1012.0
20260905223021 27 352 0.0 3.2 0.00 0.71 0.69 88 1011.9
20260905222510 27 320 0.0 3.2 0.00 0.71 0.69 87 1011.9
20260905222011 27 338 1.6 3.2 0.00 0.71 0.69 86 1012.0
20260905221520 27 336 0.0 3.2 0.00 0.74 0.69 86 1012.0
20260905221010 27 336 0.0 6.4 0.00 0.74 0.69 85 1012.1
20260905220511 28 338 1.6 6.4 0.00 0.76 0.69 83 1012.0
20260905220022 28 347 3.2 6.4 0.00 0.79 0.69 81 1012.0
20260905215512 28 342 3.2 6.4 0.00 0.81 0.69 80 1012.1
20260905215006 29 28 1.6 6.4 0.00 0.84 0.69 80 1012.1
20260905214513 29 47 0.0 0.0 0.00 0.86 0.69 83 1012.3
20260905214007 29 236 0.0 0.0 0.00 0.89 0.69 81 1012.4
20260905213509 28 236 0.0 0.0 0.00 0.91 0.69 80 1012.3
20260905213025 28 236 0.0 0.0 0.00 0.94 0.69 81 1012.3
20260905212510 28 144 0.0 4.8 0.00 0.97 0.69 81 1012.3
20260905212009 28 9 0.0 4.8 0.00 0.99 0.69 80 1012.3
20260905211522 28 9 1.6 11.3 0.00 0.99 0.69 79 1012.3
20260905211011 29 344 4.8 11.3 0.00 1.02 0.69 78 1012.3
20260905210512 30 314 1.6 11.3 0.00 1.02 0.69 80 1012.3
20260905210027 30 271 1.6 11.3 0.00 1.04 0.69 78 1012.2
20260905205511 30 259 4.8 8.0 0.00 1.04 0.69 77 1012.1
20260905205011 30 307 0.0 8.0 0.00 1.04 0.69 79 1012.1
20260905204512 30 204 0.0 6.4 0.00 1.07 0.69 81 1012.2
20260905204005 29 252 1.6 6.4 0.00 1.07 0.69 82 1012.3
20260905203508 29 238 0.0 3.2 0.00 1.09 0.69 86 1012.4
20260905203025 28 209 0.0 4.8 0.00 1.12 0.69 83 1012.4
20260905202509 28 204 0.0 4.8 0.00 1.17 0.69 83 1012.4
20260905202010 28 249 0.0 11.3 0.00 1.22 0.69 83 1012.5
20260905201524 28 289 0.0 11.3 0.00 1.30 0.69 83 1012.4
20260905201011 29 233 3.2 9.7 0.00 1.40 0.69 86 1012.5
20260905200511 29 247 1.6 6.4 0.00 1.52 0.69 85 1012.4
20260905200033 29 259 0.0 11.3 0.05 1.65 0.69 86 1012.5
20260905195514 29 219 1.6 12.9 0.38 1.80 0.69 84 1012.6
20260905195013 29 161 6.4 12.9 0.66 1.98 0.69 85 1012.7
20260905194526 28 163 4.8 11.3 0.69 2.16 0.69 86 1012.6
20260905194012 28 173 4.8 11.3 0.69 2.34 0.69 88 1012.6
20260905193503 27 182 3.2 6.4 0.69 2.54 0.69 87 1012.8
20260905193014 27 165 0.0 4.8 0.69 2.77 0.69 88 1013.0
20260905192506 27 144 1.6 4.8 0.69 3.02 0.69 87 1013.1
20260905192009 27 148 1.6 4.8 0.69 3.25 0.69 90 1013.0